Weather History for KONL - March, 2014

Change the Weather History Date:

Wednesday, March 12, 2014

  Actual Average Record
Temperature  
Mean Temperature 41 °F -  
Max Temperature 55 °F 46 °F 80 °F (2015)
Min Temperature 27 °F 23 °F -12 °F (1956)
Degree Days  
Heating Degree Days 24    
Moisture  
Dew Point 23 °F    
Average Humidity 58    
Maximum Humidity 89    
Minimum Humidity 23    
Precipitation  
Precipitation 0.00 in - - ()
Sea Level Pressure  
Sea Level Pressure 30.11 in    
Wind  
Wind Speed 10 mph (WNW)    
Max Wind Speed 21 mph    
Max Gust Speed 28 mph    
Visibility 10 miles    
Events      
Averages and records for this station are not official NWS values.
T = Trace of Precipitation, MM = Missing Value Source: NWS Daily Summary

Daily Weather History Graph

Daily Weather History Graph

Search for Another Location

Airport or City:

Trip Planner

Search our weather history database for the weather conditions in past years. The results will help you decide how hot, cold, wet, or windy it might be!

Date:

Astronomy

Mar. 12, 2014 Rise Set
Actual Time 7:51 AM CDT 7:37 PM CDT
Civil Twilight 7:23 AM CDT 8:05 PM CDT
Nautical Twilight 6:51 AM CDT 8:38 PM CDT
Astronomical Twilight 6:18 AM CDT 9:11 PM CDT
Moon 4:06 PM CDT (3/12) 5:28 AM CDT (3/12)
Length of Visible Light 12h 42m
Length of Day
11h 46m
Waxing Gibbous, 85% of the Moon is Illuminated
Mar 12
Waxing Gibbous
Mar 16
Full
Mar 23
Last Quarter
Mar 30
New
Apr 7
First Quarter

Hourly Weather History & Observations

Time (CDT) Temp. Windchill Dew Point Humidity Pressure Visibility Wind Dir Wind Speed Gust Speed Precip Events Conditions
12:15 AM 29.5 °F 22.5 °F 26.6 °F 89% 30.17 in 10.0 mi NW 6.9 mph - N/A   Clear
12:35 AM 29.7 °F 22.8 °F 26.2 °F 87% 30.17 in 10.0 mi NW 6.9 mph - N/A   Clear
12:55 AM 29.5 °F 21.1 °F 26.4 °F 88% 30.17 in 10.0 mi WNW 9.2 mph - N/A   Clear
1:15 AM 29.3 °F 22.3 °F 25.9 °F 87% 30.17 in 10.0 mi WNW 6.9 mph - N/A   Clear
1:35 AM 28.8 °F 22.6 °F 25.5 °F 88% 30.17 in 10.0 mi WNW 5.8 mph - N/A   Clear
1:55 AM 28.4 °F 23.3 °F 25.3 °F 88% 30.17 in 10.0 mi WNW 4.6 mph - N/A   Mostly Cloudy
2:15 AM 29.1 °F 22.1 °F 25.9 °F 88% 30.17 in 10.0 mi West 6.9 mph - N/A   Overcast
2:35 AM 29.7 °F 22.0 °F 26.4 °F 88% 30.17 in 10.0 mi West 8.1 mph - N/A   Overcast
2:55 AM 30.0 °F 23.2 °F 26.6 °F 87% 30.17 in 10.0 mi West 6.9 mph - N/A   Mostly Cloudy
3:15 AM 29.3 °F 23.2 °F 26.2 °F 88% 30.16 in 10.0 mi West 5.8 mph - N/A   Mostly Cloudy
3:35 AM 29.7 °F 23.7 °F 26.4 °F 88% 30.15 in 10.0 mi West 5.8 mph - N/A   Overcast
3:55 AM 29.3 °F 25.6 °F 26.2 °F 88% 30.15 in 10.0 mi West 3.5 mph - N/A   Overcast
4:15 AM 28.2 °F 21.0 °F 25.2 °F 88% 30.14 in 10.0 mi West 6.9 mph - N/A   Scattered Clouds
4:35 AM 28.9 °F 21.9 °F 25.5 °F 87% 30.14 in 10.0 mi West 6.9 mph - N/A   Clear
4:55 AM 28.8 °F 20.9 °F 25.3 °F 87% 30.14 in 10.0 mi West 8.1 mph - N/A   Clear
5:15 AM 27.5 °F 20.2 °F 24.4 °F 88% 30.14 in 10.0 mi West 6.9 mph - N/A   Clear
5:35 AM 27.3 °F 19.9 °F 24.3 °F 88% 30.14 in 10.0 mi West 6.9 mph - N/A   Clear
5:55 AM 27.1 °F 18.9 °F 23.9 °F 88% 30.14 in 10.0 mi West 8.1 mph - N/A   Clear
6:15 AM 27.1 °F 19.7 °F 23.9 °F 88% 30.14 in 10.0 mi West 6.9 mph - N/A   Clear
6:35 AM 27.5 °F 19.3 °F 24.1 °F 87% 30.14 in 10.0 mi West 8.1 mph - N/A   Clear
6:55 AM 28.0 °F 20.8 °F 24.4 °F 86% 30.14 in 10.0 mi West 6.9 mph - N/A   Clear
7:15 AM 28.4 °F 19.7 °F 24.8 °F 86% 30.14 in 10.0 mi West 9.2 mph - N/A   Clear
7:35 AM 29.7 °F 21.3 °F 25.5 °F 85% 30.14 in 10.0 mi West 9.2 mph - N/A   Scattered Clouds
7:55 AM 30.6 °F 21.8 °F 26.4 °F 85% 30.14 in 10.0 mi West 10.4 mph - N/A   Scattered Clouds
8:15 AM 30.9 °F 22.8 °F 26.4 °F 83% 30.14 in 10.0 mi West 9.2 mph - N/A   Clear
8:35 AM 32.5 °F 23.7 °F 27.7 °F 82% 30.14 in 10.0 mi WNW 11.5 mph - N/A   Clear
8:55 AM 33.8 °F 24.8 °F 28.2 °F 80% 30.15 in 10.0 mi WNW 12.7 mph - N/A   Clear
9:15 AM 34.9 °F 25.7 °F 28.6 °F 78% 30.15 in 10.0 mi WNW 13.8 mph 17.3 mph N/A   Clear
9:35 AM 36.0 °F 26.7 °F 29.3 °F 77% 30.15 in 10.0 mi WNW 15.0 mph - N/A   Clear
9:55 AM 37.6 °F 28.8 °F 29.5 °F 73% 30.15 in 10.0 mi WNW 15.0 mph 20.7 mph N/A   Clear
10:15 AM 38.8 °F 30.0 °F 29.3 °F 69% 30.16 in 10.0 mi WNW 16.1 mph - N/A   Clear
10:35 AM 40.3 °F 31.9 °F 28.9 °F 64% 30.16 in 10.0 mi NW 16.1 mph 21.9 mph N/A   Clear
10:55 AM 41.9 °F 33.1 °F 27.9 °F 58% 30.16 in 10.0 mi WNW 19.6 mph - N/A   Clear
11:15 AM 43.2 °F 35.6 °F 25.7 °F 50% 30.15 in 10.0 mi NW 16.1 mph 24.2 mph N/A   Clear
11:35 AM 45.0 °F 37.6 °F 24.4 °F 45% 30.15 in 10.0 mi NW 17.3 mph 21.9 mph N/A   Clear
11:55 AM 45.9 °F 38.3 °F 22.6 °F 40% 30.15 in 10.0 mi WNW 19.6 mph 24.2 mph N/A   Clear
12:15 PM 47.1 °F - 20.8 °F 35% 30.15 in 10.0 mi WNW 17.3 mph 25.3 mph N/A   Clear
12:35 PM 47.8 °F - 19.2 °F 32% 30.15 in 10.0 mi NW 17.3 mph - N/A   Clear
12:55 PM 49.3 °F - 18.3 °F 29% 30.14 in 10.0 mi NW 17.3 mph 24.2 mph N/A   Clear
1:15 PM 49.5 °F - 18.3 °F 29% 30.13 in 10.0 mi WNW 13.8 mph 23.0 mph N/A   Clear
1:35 PM 50.4 °F - 18.5 °F 28% 30.13 in 10.0 mi WNW 17.3 mph 23.0 mph N/A   Clear
1:55 PM 51.3 °F - 19.9 °F 29% 30.12 in 10.0 mi NW 20.7 mph 25.3 mph N/A   Clear
2:15 PM 51.3 °F - 19.6 °F 29% 30.11 in 10.0 mi NW 13.8 mph 25.3 mph N/A   Clear
2:35 PM 53.1 °F - 20.1 °F 28% 30.10 in 10.0 mi WNW 17.3 mph 21.9 mph N/A   Scattered Clouds
2:55 PM 52.5 °F - 21.2 °F 29% 30.09 in 10.0 mi NW 19.6 mph 27.6 mph N/A   Scattered Clouds
3:15 PM 53.8 °F - 19.9 °F 27% 30.07 in 10.0 mi WNW 18.4 mph 27.6 mph N/A   Scattered Clouds
3:35 PM 53.8 °F - 19.2 °F 26% 30.07 in 10.0 mi NW 18.4 mph 24.2 mph N/A   Scattered Clouds
3:55 PM 54.5 °F - 18.7 °F 25% 30.06 in 10.0 mi WNW 18.4 mph 25.3 mph N/A   Scattered Clouds
4:15 PM 54.5 °F - 16.9 °F 23% 30.06 in 10.0 mi NW 20.7 mph 25.3 mph N/A   Clear
4:35 PM 54.5 °F - 17.1 °F 23% 30.06 in 10.0 mi WNW 17.3 mph - N/A   Clear
4:55 PM 54.5 °F - 17.8 °F 24% 30.05 in 10.0 mi WNW 20.7 mph 25.3 mph N/A   Clear
5:15 PM 54.9 °F - 17.8 °F 23% 30.04 in 10.0 mi WNW 15.0 mph 25.3 mph N/A   Clear
5:35 PM 55.2 °F - 18.0 °F 23% 30.04 in 10.0 mi WNW 17.3 mph 20.7 mph N/A   Clear
5:55 PM 55.0 °F - 18.0 °F 23% 30.04 in 10.0 mi NW 19.6 mph 23.0 mph N/A   Clear
6:15 PM 54.5 °F - 18.0 °F 24% 30.04 in 10.0 mi NW 17.3 mph - N/A   Clear
6:35 PM 54.0 °F - 19.2 °F 26% 30.03 in 10.0 mi WNW 15.0 mph - N/A   Clear
6:55 PM 52.9 °F - 19.0 °F 26% 30.03 in 10.0 mi WNW 11.5 mph - N/A   Clear
7:15 PM 51.1 °F - 19.4 °F 29% 30.03 in 10.0 mi NW 10.4 mph - N/A   Clear
7:35 PM 48.7 °F - 20.7 °F 33% 30.04 in 10.0 mi WNW 8.1 mph - N/A   Clear
7:55 PM 45.9 °F 41.2 °F 21.7 °F 38% 30.04 in 10.0 mi WNW 9.2 mph - N/A   Clear
8:15 PM 45.1 °F 40.8 °F 22.1 °F 40% 30.04 in 10.0 mi WNW 8.1 mph - N/A   Clear
8:35 PM 43.5 °F 38.9 °F 22.5 °F 43% 30.04 in 10.0 mi WNW 8.1 mph - N/A   Clear
8:55 PM 43.3 °F 38.1 °F 23.0 °F 45% 30.04 in 10.0 mi WNW 9.2 mph - N/A   Clear
9:15 PM 42.3 °F 37.3 °F 23.2 °F 47% 30.05 in 10.0 mi WNW 8.1 mph - N/A   Clear
9:35 PM 41.9 °F 36.3 °F 23.0 °F 47% 30.05 in 10.0 mi WNW 9.2 mph - N/A   Clear
9:55 PM 41.0 °F 35.8 °F 23.0 °F 49% 30.05 in 10.0 mi WNW 8.1 mph - N/A   Clear
10:15 PM 39.0 °F 34.8 °F 22.5 °F 52% 30.05 in 10.0 mi West 5.8 mph - N/A   Clear
10:35 PM 36.0 °F 32.1 °F 23.0 °F 59% 30.05 in 10.0 mi West 4.6 mph - N/A   Clear
10:55 PM 37.6 °F 31.6 °F 22.8 °F 55% 30.05 in 10.0 mi WNW 8.1 mph - N/A   Clear
11:15 PM 34.7 °F 28.1 °F 23.5 °F 64% 30.05 in 10.0 mi West 8.1 mph - N/A   Clear
11:35 PM 34.9 °F 28.3 °F 23.7 °F 64% 30.04 in 10.0 mi West 8.1 mph - N/A   Clear
11:55 PM 35.8 °F 28.8 °F 24.3 °F 63% 30.04 in 10.0 mi West 9.2 mph - N/A   Clear